Regional Weather Roundup
Issued by NWS Upton, NY

Current Version | Previous Version | Text Only | Print | Product List | Glossary On
Versions: 1 2 3 4 5 6 7 8 9 10 11 12 13 14 15 16 17 18 19 20 21 22 23 24 25 26 27 28 29 30 31 32 33 34 35 36 37 38 39 40 41 42 43 44 45 46 47 48 49 50
000 ASUS41 KOKX 271804 RWROKX REGIONAL WEATHER ROUNDUP NATIONAL WEATHER SERVICE NEW YORK NY 200 PM EDT THU AUG 27 2015 NOTE: "FAIR" INDICATES FEW OR NO CLOUDS BELOW 12,000 FEET WITH NO SIGNIFICANT WEATHER AND/OR OBSTRUCTIONS TO VISIBILITY. NYZ071-072-176-178-NJZ106-104-271900- NEW YORK CITY METRO AREA CITY SKY/WX TMP DP RH WIND PRES REMARKS CENTRAL PARK MOSUNNY 81 51 35 VRB5 30.08S LAGUARDIA APRT PTSUNNY 79 53 40 NW13G24 30.04S KENNEDY INTL PTSUNNY 80 52 37 NW8 30.05S NEWARK/LIBERTY PTSUNNY 81 53 37 NW8 30.05F BRNX BOT. GARD N/A 77 52 41 NW9 30.05F TETERBORO MOSUNNY 79 51 37 NW15 30.04F $$ NYZ177-179-078>081-271900- LONG ISLAND NEW YORK CITY SKY/WX TMP DP RH WIND PRES REMARKS FARMINGDALE MOSUNNY 79 53 40 N8 30.04F ISLIP PTSUNNY 77 54 44 S8 30.03R SHIRLEY MOSUNNY 78 52 40 VRB5 30.04F WESTHAMPTON PTSUNNY 77 58 51 S9 30.05S MONTAUK POINT N/A 78 56 46 SW7 30.04F $$ NYZ052-065-067-271900- HUDSON VALLEY CITY SKY/WX TMP DP RH WIND PRES REMARKS WHITE PLAINS MOSUNNY 76 52 43 NW12 30.06S NEWBURGH MOSUNNY 73 57 56 W16 30.08S MONTGOMERY MOSUNNY 75 56 51 NW8G17 30.07S POUGHKEEPSIE MOSUNNY 77 54 44 W12 30.05S ALBANY PTSUNNY 72 54 53 W7 30.05S $$ NJZ001-105-106-008-010-013-015-019>022-104-271900- NEW JERSEY CITY SKY/WX TMP DP RH WIND PRES REMARKS NEWARK/LIBERTY PTSUNNY 81 53 37 NW8 30.05F TETERBORO MOSUNNY 79 51 37 NW15 30.04F CALDWELL PTSUNNY 77 53 43 NW14 30.07S MORRISTOWN PTSUNNY 77 55 47 W10G16 30.07F SOMERVILLE MOSUNNY 78 53 41 VRB7 30.06S SUSSEX PTSUNNY 73 54 51 VRB7 30.09S ANDOVER N/A 73 55 53 NW5 30.09S TRENTON MOSUNNY 77 55 46 NW8 30.07F MILLVILLE MOSUNNY 79 54 41 W8 30.08F ATLANTIC CITY MOSUNNY 81 55 40 W10 30.07F WRIGHTSTOWN MOSUNNY 77 55 46 NW10 30.05S TOMS RIVER CLOUDY 79 55 44 NW6 30.07S BELMAR PTSUNNY 79 54 41 NW10 30.06S $$ PAZ047>061-062-071-271900- EASTERN PENNSYLVANIA CITY SKY/WX TMP DP RH WIND PRES REMARKS PHILADELPHIA PTSUNNY 80 51 36 N6 30.08F ALLENTOWN CLOUDY 77 55 46 NW10 30.10S SCRANTON CLOUDY 69 51 52 NW9 30.13S $$ CTZ002-004>006-009-010-012-RIZ004-006-007-MAZ004-011-015-271900- SOUTHERN NEW ENGLAND IN CT CITY SKY/WX TMP DP RH WIND PRES REMARKS BRADLEY INTL PTSUNNY 75 54 47 W12 30.03S HARTFORD MOSUNNY 77 54 44 NW8 30.02F DANBURY MOSUNNY 75 53 46 W9 30.07S WTRBRY/OXFORD PTSUNNY 72 54 53 NW8 30.07F BRIDGEPORT CLOUDY 77 58 51 SW10 30.04S MERIDEN MOSUNNY 78 53 41 VRB7 30.03F NEW HAVEN PTSUNNY 74 59 59 SW10 30.03F CHESTER NOT AVBL GROTON PTSUNNY 75 62 64 SW17 30.01S WILLIMANTIC MOSUNNY 78 56 46 NW9 30.02F IN RI CITY SKY/WX TMP DP RH WIND PRES REMARKS PROVIDENCE PTSUNNY 81 54 39 W10 29.99F BLOCK ISLAND MOSUNNY 75 61 60 W15 30.03S WESTERLY PTSUNNY 76 59 55 SW12 30.02S IN MA CITY SKY/WX TMP DP RH WIND PRES REMARKS BOSTON MOSUNNY 82 55 39 W10G17 29.97F WORCESTER PTSUNNY 72 53 51 W12 30.03S WESTFIELD PTSUNNY 76 55 48 W14 30.03S PROVINCETOWN SUNNY 75 55 50 NW3 29.99S NANTUCKET MOSUNNY 78 60 53 W13 30.00S $$ ANZ330-335-338-340-345-350-353-355-271900- COASTAL MARINE OBSERVATIONS STATION/POSITION TIME SKY/WX TEMP WIND PRES VSBY WAVE AIR SEA DIR/SP/G HT/PER (UTC) (F) (DEG/KT/KT) (MB) (MI) (FT/S) NY HARB ENTRANCE 1650 73 76 280/ 6/ 10 1017.9 2/10 4S FIRE IS NOT AVBL 20S FIRE ISLAND 1650 71 74 280/ 6/ 8 1018.0 2/ 9 GREAT SOUTH BAY 1700 74 81 200/ 8/ 10 N/A 23SW MTP 1750 71 72 250/ 6/ 8 1017.0 2/ 9 HUDSON CANYON NOT AVBL KINGS POINT 1706 76 72 20/ 5/ 9 1016.7 EXECUTION ROCKS 1700 76 300/ 8/ 12 N/A CENTRAL LI SOUND NOT AVBL EASTERN LI SOUND 1700 72 71 240/ 10/ 12 N/A ROBBINS REEF 1706 75 290/ 8/ 12 1016.6 $$ >>>>>>>>>>>>>>>>>>>>>>>>>>>> KEY <<<<<<<<<<<<<<<<<<<<<<<<<<< > < > SKY/WX - SKY CONDITION/PRESENT WEATHER < > TMP - TEMPERATURE IN FAHRENHEIT < > DP - DEWPOINT IN FAHRENHEIT < > RH - RELATIVE HUMIDITY IN PERCENT < > WIND - DIRECTION AND SPEED IN MPH < > PRES - MEAN SEA LEVEL PRESSURE IN INCHES OF HG < > WCI - WIND CHILL INDEX < > VSB - VISIBILITY IN MILES < > HX - HEAT INDEX < > TC - TEMPERATURE IN CELSIUS < > VRB - VARIABLE WIND DIRECTION < > < >>>>>>>>>>>>>>>>>>>>>>>>>>>> KEY <<<<<<<<<<<<<<<<<<<<<<<<<<<

USA.gov is the U.S. government's official web portal to all federal, state and local government web resources and services.